| time (UTC) | temp F | wind direction | speed MPH | gust MPH | rain 1hr in | rain 24hr in | rain mn in | humidity % | barometer mb |
| 20260502162706 | 66 | 292 | 0.0 | 7.0 | 0.00 | 0.00 | 0.00 | 47 | 1020.6 |
| 20260502162200 | 66 | 261 | 7.0 | 12.0 | 0.00 | 0.00 | 0.00 | 47 | 1020.7 |
| 20260502161703 | 66 | 273 | 9.0 | 10.0 | 0.00 | 0.00 | 0.00 | 44 | 1020.6 |
| 20260502161203 | 66 | 279 | 6.0 | 9.0 | 0.00 | 0.00 | 0.00 | 44 | 1020.6 |
| 20260502160700 | 66 | 273 | 1.0 | 9.0 | 0.00 | 0.00 | 0.00 | 44 | 1020.6 |
| 20260502160200 | 66 | 282 | 6.0 | 10.0 | 0.00 | 0.00 | 0.00 | 44 | 1020.5 |
| 20260502152206 | 67 | 312 | 6.0 | 8.0 | 0.00 | 0.00 | 0.00 | 41 | 1020.6 |
| 20260502151700 | 67 | 266 | 4.0 | 11.0 | 0.00 | 0.00 | 0.00 | 40 | 1020.5 |
| 20260502151200 | 67 | 280 | 4.0 | 11.0 | 0.00 | 0.00 | 0.00 | 41 | 1020.5 |
| 20260502150703 | 68 | 311 | 6.0 | 12.0 | 0.00 | 0.00 | 0.00 | 40 | 1020.5 |
| 20260502150200 | 68 | 289 | 6.0 | 9.0 | 0.00 | 0.00 | 0.00 | 40 | 1020.5 |
| 20260502130700 | 67 | 308 | 1.0 | 15.0 | 0.00 | 0.00 | 0.00 | 41 | 1021.2 |
| 20260502130200 | 66 | 271 | 4.0 | 11.0 | 0.00 | 0.00 | 0.00 | 42 | 1021.1 |
| 20260502123700 | 67 | 307 | 5.0 | 9.0 | 0.00 | 0.00 | 0.00 | 42 | 1021.2 |
| 20260502123203 | 66 | 355 | 4.0 | 12.0 | 0.00 | 0.00 | 0.00 | 45 | 1021.2 |
| 20260502122707 | 66 | 16 | 2.0 | 10.0 | 0.00 | 0.00 | 0.00 | 45 | 1021.3 |
| 20260502122201 | 66 | 312 | 4.0 | 12.0 | 0.00 | 0.00 | 0.00 | 45 | 1021.3 |
| 20260502121703 | 66 | 34 | 1.0 | 7.0 | 0.00 | 0.00 | 0.00 | 43 | 1021.3 |
| 20260502121200 | 67 | 279 | 6.0 | 12.0 | 0.00 | 0.00 | 0.00 | 44 | 1021.4 |
| 20260502120706 | 66 | 292 | 3.0 | 9.0 | 0.00 | 0.00 | 0.00 | 43 | 1021.3 |
| 20260502120200 | 66 | 30 | 2.0 | 7.0 | 0.00 | 0.00 | 0.00 | 43 | 1021.3 |
| 20260502115700 | 66 | 340 | 3.0 | 10.0 | 0.00 | 0.00 | 0.00 | 42 | 1021.3 |
| 20260502115206 | 66 | 288 | 5.0 | 12.0 | 0.00 | 0.00 | 0.00 | 43 | 1021.3 |
| 20260502114706 | 66 | 348 | 4.0 | 10.0 | 0.00 | 0.00 | 0.00 | 44 | 1021.2 |
| 20260502114200 | 66 | 328 | 6.0 | 10.0 | 0.00 | 0.00 | 0.00 | 44 | 1021.3 |
| 20260502113709 | 65 | 248 | 4.0 | 12.0 | 0.00 | 0.00 | 0.00 | 44 | 1021.2 |
| 20260502113200 | 66 | 340 | 9.0 | 14.0 | 0.00 | 0.00 | 0.00 | 42 | 1021.2 |
| 20260502112700 | 65 | 281 | 4.0 | 9.0 | 0.00 | 0.00 | 0.00 | 41 | 1021.2 |
| 20260502112200 | 65 | 267 | 5.0 | 10.0 | 0.00 | 0.00 | 0.00 | 40 | 1021.4 |
| 20260502111703 | 66 | 295 | 9.0 | 14.0 | 0.00 | 0.00 | 0.00 | 40 | 1021.3 |
| 20260502111200 | 66 | 334 | 3.0 | 11.0 | 0.00 | 0.00 | 0.00 | 38 | 1021.3 |
| 20260502110701 | 66 | 306 | 7.0 | 11.0 | 0.00 | 0.00 | 0.00 | 38 | 1021.3 |
| 20260502110200 | 65 | 355 | 6.0 | 10.0 | 0.00 | 0.00 | 0.00 | 39 | 1021.4 |
| 20260502105703 | 65 | 296 | 3.0 | 11.0 | 0.00 | 0.00 | 0.00 | 40 | 1021.4 |
| 20260502105203 | 65 | 321 | 2.0 | 13.0 | 0.00 | 0.00 | 0.00 | 40 | 1021.4 |
| 20260502104709 | 66 | 323 | 9.0 | 12.0 | 0.00 | 0.00 | 0.00 | 40 | 1021.4 |
| 20260502104200 | 66 | 313 | 4.0 | 11.0 | 0.00 | 0.00 | 0.00 | 39 | 1021.5 |
| 20260502103703 | 66 | 44 | 4.0 | 11.0 | 0.00 | 0.00 | 0.00 | 40 | 1021.5 |
| 20260502103200 | 65 | 298 | 10.0 | 10.0 | 0.00 | 0.00 | 0.00 | 40 | 1021.5 |
| 20260502102700 | 65 | 298 | 6.0 | 11.0 | 0.00 | 0.00 | 0.00 | 39 | 1021.5 |
| 20260502102200 | 65 | 306 | 6.0 | 14.0 | 0.00 | 0.00 | 0.00 | 42 | 1021.6 |
| 20260502101700 | 65 | 211 | 1.0 | 9.0 | 0.00 | 0.00 | 0.00 | 40 | 1021.5 |
| 20260502101200 | 65 | 323 | 3.0 | 10.0 | 0.00 | 0.00 | 0.00 | 42 | 1021.5 |
| 20260502100706 | 64 | 324 | 6.0 | 14.0 | 0.00 | 0.00 | 0.00 | 42 | 1021.5 |
| 20260502100201 | 64 | 317 | 5.0 | 10.0 | 0.00 | 0.00 | 0.00 | 46 | 1021.6 |
| 20260502091200 | 64 | 15 | 4.0 | 13.0 | 0.00 | 0.00 | 0.00 | 50 | 1021.2 |
| 20260502090700 | 64 | 355 | 6.0 | 14.0 | 0.00 | 0.00 | 0.00 | 49 | 1021.3 |
| 20260502090203 | 64 | 78 | 5.0 | 13.0 | 0.00 | 0.00 | 0.00 | 49 | 1021.2 |
| 20260502071207 | 64 | 321 | 11.0 | 13.0 | 0.00 | 0.00 | 0.00 | 50 | 1020.8 |
| 20260502070704 | 64 | 317 | 2.0 | 6.0 | 0.00 | 0.00 | 0.00 | 51 | 1020.7 |
| 20260502070204 | 63 | 355 | 4.0 | 8.0 | 0.00 | 0.00 | 0.00 | 52 | 1020.8 |
| 20260502065701 | 63 | 18 | 6.0 | 11.0 | 0.00 | 0.00 | 0.00 | 51 | 1020.7 |
| 20260502065201 | 63 | 5 | 4.0 | 11.0 | 0.00 | 0.00 | 0.00 | 49 | 1020.7 |
| 20260502064707 | 64 | 22 | 5.0 | 10.0 | 0.00 | 0.00 | 0.00 | 49 | 1020.7 |
| 20260502064200 | 63 | 301 | 2.0 | 7.0 | 0.00 | 0.00 | 0.00 | 50 | 1020.7 |
| 20260502063704 | 63 | 341 | 5.0 | 8.0 | 0.00 | 0.00 | 0.00 | 54 | 1020.7 |
| 20260502063210 | 61 | 355 | 4.0 | 9.0 | 0.00 | 0.00 | 0.00 | 56 | 1020.7 |
| 20260502062701 | 60 | 195 | 0.0 | 2.0 | 0.00 | 0.00 | 0.00 | 59 | 1020.7 |
| 20260502062201 | 60 | 196 | 0.0 | 2.0 | 0.00 | 0.00 | 0.00 | 60 | 1020.6 |
| 20260502061701 | 59 | 157 | 0.0 | 0.0 | 0.00 | 0.00 | 0.00 | 61 | 1020.7 |
| 20260502061204 | 59 | 157 | 0.0 | 0.0 | 0.00 | 0.00 | 0.00 | 63 | 1020.6 |
| 20260502060704 | 58 | 157 | 0.0 | 1.0 | 0.00 | 0.00 | 0.00 | 64 | 1020.6 |
| 20260502060201 | 57 | 146 | 0.0 | 3.0 | 0.00 | 0.00 | 0.00 | 64 | 1020.6 |
| 20260502055701 | 57 | 163 | 3.0 | 3.0 | 0.00 | 0.00 | 0.00 | 64 | 1020.5 |
| 20260502055204 | 57 | 144 | 0.0 | 4.0 | 0.00 | 0.00 | 0.00 | 64 | 1020.5 |
| 20260502054704 | 57 | 151 | 0.0 | 3.0 | 0.00 | 0.00 | 0.00 | 64 | 1020.5 |
| 20260502054204 | 57 | 141 | 1.0 | 2.0 | 0.00 | 0.00 | 0.00 | 65 | 1020.4 |
| 20260502053707 | 57 | 169 | 0.0 | 2.0 | 0.00 | 0.00 | 0.00 | 65 | 1020.4 |
| 20260502053201 | 56 | 113 | 0.0 | 3.0 | 0.00 | 0.00 | 0.00 | 65 | 1020.4 |
| 20260502052704 | 56 | 139 | 0.0 | 3.0 | 0.00 | 0.00 | 0.00 | 65 | 1020.4 |
| 20260502052204 | 55 | 98 | 0.0 | 5.0 | 0.00 | 0.00 | 0.00 | 65 | 1020.4 |
| 20260502051701 | 55 | 121 | 2.0 | 3.0 | 0.00 | 0.00 | 0.00 | 66 | 1020.4 |
| 20260502051204 | 55 | 150 | 0.0 | 4.0 | 0.00 | 0.01 | 0.00 | 67 | 1020.4 |
| 20260502050704 | 54 | 140 | 2.0 | 5.0 | 0.00 | 0.06 | 0.00 | 68 | 1020.3 |
| 20260502050201 | 54 | 109 | 2.0 | 5.0 | 0.00 | 0.07 | 0.00 | 68 | 1020.3 |
| 20260502045704 | 54 | 169 | 0.0 | 4.0 | 0.00 | 0.11 | 0.00 | 68 | 1020.3 |
| 20260502045202 | 53 | 138 | 4.0 | 4.0 | 0.00 | 0.15 | 0.00 | 69 | 1020.3 |
| 20260502044704 | 53 | 117 | 0.0 | 5.0 | 0.00 | 0.16 | 0.00 | 69 | 1020.3 |
| 20260502044204 | 53 | 139 | 2.0 | 7.0 | 0.00 | 0.16 | 0.00 | 70 | 1020.3 |
| 20260502043701 | 53 | 192 | 4.0 | 8.0 | 0.00 | 0.16 | 0.00 | 70 | 1020.3 |
| 20260502043201 | 53 | 152 | 5.0 | 5.0 | 0.00 | 0.16 | 0.00 | 71 | 1020.2 |
| 20260502042702 | 53 | 117 | 4.0 | 7.0 | 0.00 | 0.16 | 0.00 | 71 | 1020.2 |
| 20260502042204 | 52 | 225 | 5.0 | 6.0 | 0.00 | 0.16 | 0.00 | 71 | 1020.1 |
| 20260502041707 | 53 | 167 | 0.0 | 5.0 | 0.00 | 0.16 | 0.00 | 71 | 1020.2 |
| 20260502041201 | 53 | 127 | 0.0 | 7.0 | 0.00 | 0.16 | 0.00 | 71 | 1020.1 |
| 20260502040707 | 53 | 151 | 2.0 | 7.0 | 0.00 | 0.16 | 0.00 | 72 | 1020.1 |
| 20260502040204 | 53 | 90 | 1.0 | 6.0 | 0.00 | 0.16 | 0.00 | 72 | 1020.1 |
| 20260502035707 | 53 | 186 | 0.0 | 5.0 | 0.00 | 0.16 | 0.00 | 72 | 1020.0 |
| 20260502035201 | 53 | 131 | 4.0 | 7.0 | 0.00 | 0.16 | 0.00 | 72 | 1020.0 |
| 20260502034705 | 53 | 140 | 0.0 | 4.0 | 0.00 | 0.16 | 0.00 | 73 | 1020.0 |
| 20260502034202 | 53 | 132 | 0.0 | 6.0 | 0.00 | 0.16 | 0.00 | 73 | 1020.0 |
| 20260502033701 | 53 | 166 | 0.0 | 4.0 | 0.00 | 0.16 | 0.00 | 74 | 1020.1 |
| 20260502033202 | 53 | 168 | 0.0 | 1.0 | 0.00 | 0.16 | 0.00 | 74 | 1020.1 |
| 20260502032701 | 53 | 140 | 0.0 | 4.0 | 0.00 | 0.16 | 0.00 | 75 | 1020.0 |
| 20260502032201 | 53 | 134 | 0.0 | 4.0 | 0.00 | 0.16 | 0.00 | 75 | 1020.0 |
| 20260502031701 | 53 | 115 | 3.0 | 3.0 | 0.00 | 0.16 | 0.00 | 75 | 1020.0 |
| 20260502031204 | 53 | 116 | 0.0 | 3.0 | 0.00 | 0.16 | 0.00 | 76 | 1020.1 |
| 20260502030704 | 54 | 116 | 0.0 | 4.0 | 0.00 | 0.16 | 0.00 | 76 | 1020.0 |
| 20260502030210 | 54 | 120 | 3.0 | 3.0 | 0.00 | 0.16 | 0.00 | 76 | 1020.0 |
| 20260502025701 | 54 | 113 | 1.0 | 3.0 | 0.00 | 0.16 | 0.00 | 76 | 1020.0 |
| 20260502025201 | 54 | 113 | 1.0 | 4.0 | 0.00 | 0.16 | 0.00 | 76 | 1020.1 |
| 20260502024704 | 54 | 113 | 0.0 | 4.0 | 0.00 | 0.16 | 0.00 | 75 | 1020.1 |
| 20260502024204 | 54 | 113 | 2.0 | 4.0 | 0.00 | 0.16 | 0.00 | 76 | 1020.1 |
| 20260502023701 | 55 | 113 | 0.0 | 4.0 | 0.00 | 0.16 | 0.00 | 75 | 1020.1 |
| 20260502023201 | 55 | 141 | 0.0 | 3.0 | 0.00 | 0.16 | 0.00 | 75 | 1020.1 |
| 20260502022701 | 55 | 134 | 0.0 | 4.0 | 0.00 | 0.16 | 0.00 | 75 | 1020.1 |
| 20260502022201 | 55 | 146 | 2.0 | 6.0 | 0.00 | 0.16 | 0.00 | 75 | 1020.1 |
| 20260502021701 | 55 | 169 | 5.0 | 6.0 | 0.00 | 0.16 | 0.00 | 75 | 1020.2 |
| 20260502021201 | 55 | 116 | 0.0 | 4.0 | 0.00 | 0.16 | 0.00 | 74 | 1020.2 |
| 20260502020701 | 55 | 111 | 0.0 | 1.0 | 0.00 | 0.16 | 0.00 | 75 | 1020.1 |
| 20260502020204 | 55 | 120 | 0.0 | 3.0 | 0.00 | 0.16 | 0.00 | 75 | 1020.1 |
| 20260502015704 | 55 | 136 | 0.0 | 0.0 | 0.00 | 0.16 | 0.00 | 75 | 1020.1 |
| 20260502015158 | 55 | 150 | 0.0 | 3.0 | 0.00 | 0.16 | 0.00 | 75 | 1020.1 |
| 20260502014658 | 55 | 186 | 0.0 | 3.0 | 0.00 | 0.16 | 0.00 | 75 | 1020.1 |
| 20260502014158 | 55 | 105 | 2.0 | 3.0 | 0.00 | 0.16 | 0.00 | 74 | 1020.0 |
| 20260502013658 | 55 | 150 | 1.0 | 5.0 | 0.00 | 0.16 | 0.00 | 74 | 1019.9 |
| 20260502013202 | 55 | 155 | 0.0 | 6.0 | 0.00 | 0.16 | 0.00 | 74 | 1019.9 |
| 20260502012701 | 56 | 109 | 2.0 | 6.0 | 0.00 | 0.16 | 0.00 | 74 | 1019.8 |
| 20260502012204 | 56 | 119 | 0.0 | 3.0 | 0.00 | 0.16 | 0.00 | 74 | 1019.8 |
| 20260502011701 | 56 | 119 | 0.0 | 4.0 | 0.00 | 0.16 | 0.00 | 74 | 1019.7 |
| 20260502011158 | 56 | 126 | 0.0 | 5.0 | 0.00 | 0.16 | 0.00 | 74 | 1019.8 |
| 20260502010701 | 56 | 144 | 0.0 | 5.0 | 0.00 | 0.16 | 0.00 | 74 | 1019.8 |
| 20260502010158 | 56 | 119 | 1.0 | 4.0 | 0.00 | 0.16 | 0.00 | 74 | 1019.9 |
| 20260502005658 | 56 | 169 | 0.0 | 4.0 | 0.00 | 0.16 | 0.00 | 74 | 1019.9 |
| 20260502005205 | 56 | 144 | 3.0 | 5.0 | 0.00 | 0.16 | 0.00 | 74 | 1019.8 |
| 20260502004658 | 56 | 144 | 3.0 | 7.0 | 0.00 | 0.16 | 0.00 | 73 | 1019.8 |
| 20260502004158 | 56 | 173 | 3.0 | 3.0 | 0.00 | 0.16 | 0.00 | 73 | 1019.9 |
| 20260502003658 | 56 | 132 | 0.0 | 3.0 | 0.00 | 0.16 | 0.00 | 73 | 1019.9 |
| 20260502003202 | 56 | 151 | 1.0 | 4.0 | 0.00 | 0.16 | 0.00 | 73 | 1019.8 |
| 20260502002701 | 57 | 144 | 3.0 | 4.0 | 0.00 | 0.16 | 0.00 | 72 | 1019.8 |
| 20260502002158 | 57 | 129 | 2.0 | 3.0 | 0.00 | 0.16 | 0.00 | 72 | 1019.8 |
| 20260502001658 | 57 | 169 | 0.0 | 0.0 | 0.00 | 0.16 | 0.00 | 72 | 1019.8 |
| 20260502001158 | 57 | 169 | 0.0 | 3.0 | 0.00 | 0.16 | 0.00 | 72 | 1019.8 |
| 20260502000658 | 57 | 160 | 1.0 | 3.0 | 0.00 | 0.16 | 0.00 | 71 | 1019.7 |
| 20260502000158 | 57 | 155 | 1.0 | 5.0 | 0.00 | 0.16 | 0.00 | 71 | 1019.7 |
| 20260501235701 | 58 | 135 | 2.0 | 4.0 | 0.00 | 0.16 | 0.00 | 70 | 1019.6 |
| 20260501235159 | 58 | 146 | 0.0 | 3.0 | 0.00 | 0.16 | 0.00 | 70 | 1019.7 |
| 20260501234658 | 58 | 167 | 1.0 | 2.0 | 0.00 | 0.16 | 0.00 | 69 | 1019.7 |
| 20260501234205 | 58 | 167 | 0.0 | 0.0 | 0.00 | 0.16 | 0.00 | 69 | 1019.7 |
| 20260501233658 | 58 | 167 | 0.0 | 2.0 | 0.00 | 0.16 | 0.00 | 69 | 1019.8 |
| 20260501233201 | 58 | 117 | 0.0 | 3.0 | 0.00 | 0.16 | 0.00 | 69 | 1019.8 |
| 20260501232659 | 58 | 162 | 0.0 | 2.0 | 0.00 | 0.16 | 0.00 | 69 | 1019.7 |
| 20260501232201 | 58 | 162 | 0.0 | 2.0 | 0.00 | 0.16 | 0.00 | 69 | 1019.7 |
| 20260501231707 | 58 | 162 | 0.0 | 4.0 | 0.00 | 0.16 | 0.00 | 70 | 1019.8 |
| 20260501231202 | 58 | 136 | 1.0 | 4.0 | 0.00 | 0.16 | 0.00 | 70 | 1019.8 |
| 20260501230659 | 58 | 115 | 2.0 | 7.0 | 0.00 | 0.16 | 0.00 | 70 | 1019.8 |
| 20260501230158 | 58 | 160 | 0.0 | 5.0 | 0.00 | 0.16 | 0.00 | 71 | 1019.8 |
| 20260501225702 | 57 | 183 | 2.0 | 7.0 | 0.00 | 0.16 | 0.00 | 71 | 1019.9 |
| 20260501225159 | 57 | 136 | 0.0 | 5.0 | 0.00 | 0.16 | 0.00 | 71 | 1019.9 |
| 20260501224702 | 57 | 159 | 2.0 | 8.0 | 0.00 | 0.16 | 0.00 | 71 | 1019.9 |
| 20260501224158 | 57 | 156 | 2.0 | 8.0 | 0.00 | 0.16 | 0.00 | 72 | 1019.8 |
| 20260501223702 | 57 | 152 | 4.0 | 7.0 | 0.00 | 0.16 | 0.00 | 72 | 1019.8 |
| 20260501223202 | 57 | 138 | 0.0 | 8.0 | 0.00 | 0.16 | 0.00 | 72 | 1019.9 |
| 20260501222659 | 57 | 176 | 2.0 | 7.0 | 0.00 | 0.16 | 0.00 | 73 | 1019.9 |
| 20260501222202 | 57 | 191 | 4.0 | 7.0 | 0.00 | 0.16 | 0.00 | 73 | 1019.9 |
| 20260501221702 | 57 | 148 | 3.0 | 7.0 | 0.00 | 0.16 | 0.00 | 73 | 1020.0 |
| 20260501221159 | 57 | 123 | 2.0 | 8.0 | 0.00 | 0.16 | 0.00 | 73 | 1020.0 |
| 20260501220705 | 57 | 149 | 4.0 | 7.0 | 0.00 | 0.16 | 0.00 | 73 | 1020.0 |
| 20260501220202 | 57 | 171 | 2.0 | 7.0 | 0.00 | 0.16 | 0.00 | 73 | 1020.1 |
| 20260501215659 | 57 | 132 | 1.0 | 6.0 | 0.00 | 0.16 | 0.00 | 72 | 1020.1 |
| 20260501215159 | 57 | 140 | 5.0 | 6.0 | 0.00 | 0.16 | 0.00 | 72 | 1020.2 |
| 20260501214705 | 57 | 186 | 5.0 | 6.0 | 0.00 | 0.16 | 0.00 | 71 | 1020.1 |
| 20260501214159 | 57 | 126 | 1.0 | 7.0 | 0.00 | 0.16 | 0.00 | 71 | 1020.1 |
| 20260501213659 | 57 | 115 | 2.0 | 7.0 | 0.00 | 0.16 | 0.00 | 71 | 1020.2 |
| 20260501213159 | 57 | 121 | 0.0 | 7.0 | 0.00 | 0.16 | 0.00 | 71 | 1020.2 |
| 20260501212702 | 57 | 173 | 3.0 | 7.0 | 0.00 | 0.16 | 0.00 | 71 | 1020.3 |
| 20260501212208 | 57 | 148 | 2.0 | 7.0 | 0.00 | 0.16 | 0.00 | 71 | 1020.3 |
| 20260501211659 | 57 | 166 | 1.0 | 6.0 | 0.00 | 0.16 | 0.00 | 71 | 1020.3 |
| 20260501211202 | 57 | 142 | 1.0 | 7.0 | 0.00 | 0.16 | 0.00 | 71 | 1020.2 |
| 20260501210702 | 57 | 113 | 2.0 | 5.0 | 0.00 | 0.16 | 0.00 | 70 | 1020.2 |
| 20260501210202 | 57 | 100 | 3.0 | 5.0 | 0.00 | 0.16 | 0.00 | 70 | 1020.2 |
| 20260501205705 | 57 | 150 | 0.0 | 6.0 | 0.00 | 0.16 | 0.00 | 70 | 1020.2 |
| 20260501205202 | 57 | 100 | 0.0 | 6.0 | 0.00 | 0.16 | 0.00 | 70 | 1020.1 |
| 20260501204703 | 58 | 159 | 2.0 | 6.0 | 0.00 | 0.16 | 0.00 | 70 | 1020.1 |
| 20260501204159 | 58 | 146 | 2.0 | 7.0 | 0.00 | 0.16 | 0.00 | 70 | 1020.1 |
| 20260501203709 | 58 | 158 | 2.0 | 7.0 | 0.00 | 0.16 | 0.00 | 69 | 1020.1 |
| 20260501203159 | 58 | 123 | 0.0 | 6.0 | 0.00 | 0.16 | 0.00 | 69 | 1020.0 |
| 20260501202702 | 58 | 159 | 2.0 | 5.0 | 0.00 | 0.16 | 0.00 | 69 | 1020.0 |
| 20260501202205 | 58 | 144 | 1.0 | 5.0 | 0.00 | 0.16 | 0.00 | 69 | 1020.0 |
| 20260501201659 | 58 | 148 | 5.0 | 5.0 | 0.00 | 0.16 | 0.00 | 68 | 1020.0 |
| 20260501201205 | 58 | 136 | 2.0 | 6.0 | 0.00 | 0.16 | 0.00 | 68 | 1020.0 |
| 20260501200659 | 58 | 144 | 5.0 | 6.0 | 0.00 | 0.16 | 0.00 | 67 | 1020.0 |
| 20260501200159 | 59 | 181 | 2.0 | 6.0 | 0.00 | 0.16 | 0.00 | 67 | 1019.9 |
| 20260501195702 | 59 | 163 | 1.0 | 3.0 | 0.00 | 0.16 | 0.00 | 67 | 1019.9 |
| 20260501195202 | 59 | 166 | 1.0 | 5.0 | 0.00 | 0.16 | 0.00 | 66 | 1019.8 |
| 20260501194659 | 59 | 164 | 2.0 | 6.0 | 0.00 | 0.16 | 0.00 | 65 | 1019.8 |
| 20260501194159 | 60 | 156 | 1.0 | 6.0 | 0.00 | 0.16 | 0.00 | 64 | 1019.7 |
| 20260501193702 | 60 | 174 | 0.0 | 3.0 | 0.00 | 0.16 | 0.00 | 63 | 1019.6 |
| 20260501193202 | 61 | 140 | 0.0 | 0.0 | 0.00 | 0.16 | 0.00 | 63 | 1019.6 |
| 20260501192659 | 61 | 305 | 0.0 | 0.0 | 0.00 | 0.16 | 0.00 | 61 | 1019.6 |
| 20260501192208 | 62 | 305 | 0.0 | 0.0 | 0.00 | 0.16 | 0.00 | 60 | 1019.6 |
| 20260501191659 | 62 | 305 | 0.0 | 0.0 | 0.00 | 0.16 | 0.00 | 56 | 1019.6 |
| 20260501191159 | 62 | 305 | 0.0 | 0.0 | 0.00 | 0.16 | 0.00 | 55 | 1019.5 |
| 20260501190705 | 62 | 305 | 0.0 | 0.0 | 0.00 | 0.16 | 0.00 | 55 | 1019.5 |
| 20260501190159 | 62 | 305 | 0.0 | 3.0 | 0.00 | 0.16 | 0.00 | 55 | 1019.4 |
| 20260501185659 | 62 | 325 | 0.0 | 5.0 | 0.00 | 0.16 | 0.00 | 55 | 1019.3 |
| 20260501185202 | 62 | 334 | 0.0 | 6.0 | 0.00 | 0.16 | 0.00 | 55 | 1019.2 |
| 20260501184659 | 62 | 310 | 5.0 | 6.0 | 0.00 | 0.16 | 0.00 | 54 | 1019.2 |
| 20260501184159 | 63 | 296 | 1.0 | 4.0 | 0.00 | 0.16 | 0.00 | 54 | 1019.1 |
| 20260501183659 | 63 | 296 | 2.0 | 4.0 | 0.00 | 0.16 | 0.00 | 53 | 1019.0 |
| 20260501183159 | 63 | 308 | 3.0 | 5.0 | 0.00 | 0.16 | 0.00 | 53 | 1018.8 |
| 20260501182659 | 63 | 307 | 2.0 | 5.0 | 0.00 | 0.16 | 0.00 | 54 | 1018.8 |
| 20260501182202 | 63 | 313 | 4.0 | 4.0 | 0.00 | 0.16 | 0.00 | 54 | 1018.7 |
| 20260501181708 | 63 | 309 | 3.0 | 5.0 | 0.00 | 0.16 | 0.00 | 53 | 1018.6 |
| 20260501181159 | 63 | 216 | 0.0 | 5.0 | 0.00 | 0.16 | 0.00 | 53 | 1018.6 |
| 20260501180706 | 63 | 313 | 3.0 | 6.0 | 0.00 | 0.16 | 0.00 | 52 | 1018.6 |
| 20260501180205 | 63 | 300 | 4.0 | 6.0 | 0.00 | 0.16 | 0.00 | 52 | 1018.5 |
| 20260501175702 | 63 | 311 | 5.0 | 7.0 | 0.00 | 0.16 | 0.00 | 52 | 1018.5 |
| 20260501175159 | 63 | 311 | 2.0 | 5.0 | 0.00 | 0.16 | 0.00 | 52 | 1018.4 |
| 20260501174705 | 63 | 328 | 2.0 | 7.0 | 0.00 | 0.16 | 0.00 | 52 | 1018.4 |
| 20260501174159 | 64 | 337 | 2.0 | 9.0 | 0.00 | 0.16 | 0.00 | 52 | 1018.3 |
| 20260501173702 | 64 | 300 | 3.0 | 8.0 | 0.00 | 0.16 | 0.00 | 52 | 1018.3 |
| 20260501173200 | 64 | 298 | 6.0 | 8.0 | 0.00 | 0.16 | 0.00 | 51 | 1018.3 |
| 20260501172659 | 64 | 335 | 5.0 | 7.0 | 0.00 | 0.16 | 0.00 | 51 | 1018.2 |
| 20260501171659 | 64 | 318 | 2.0 | 8.0 | 0.00 | 0.16 | 0.00 | 50 | 1018.2 |
| 20260501171159 | 65 | 332 | 3.0 | 9.0 | 0.00 | 0.16 | 0.00 | 51 | 1018.1 |
| 20260501170702 | 65 | 294 | 5.0 | 8.0 | 0.00 | 0.16 | 0.00 | 51 | 1018.1 |
| 20260501170202 | 65 | 328 | 6.0 | 8.0 | 0.00 | 0.16 | 0.00 | 50 | 1018.0 |
| 20260501165702 | 66 | 308 | 3.0 | 10.0 | 0.00 | 0.16 | 0.00 | 49 | 1017.9 |
| 20260501165202 | 66 | 325 | 3.0 | 9.0 | 0.00 | 0.16 | 0.00 | 50 | 1018.0 |
| 20260501164705 | 66 | 11 | 5.0 | 9.0 | 0.00 | 0.16 | 0.00 | 50 | 1017.9 |
| 20260501164159 | 66 | 299 | 4.0 | 7.0 | 0.00 | 0.16 | 0.00 | 50 | 1017.9 |
| 20260501163702 | 66 | 323 | 5.0 | 7.0 | 0.00 | 0.16 | 0.00 | 50 | 1017.8 |
| 20260501163202 | 66 | 340 | 4.0 | 9.0 | 0.00 | 0.16 | 0.00 | 51 | 1017.8 |